Location: Waldport
(44.4270°N, 124.0680°W)
Time: 00:10:25
(UTC-08:00)

Amateur Radio Satellites - All Passes

Search period start: 03 December 2016 23:40
Search period end: 04 December 2016 23:40
Location: Waldport, 44.4270°N, 124.0680°W

Satellite Date Start Highest point End Downlink Frequencies (MHz)
Time Altitude Azimuth
NANOSAT C BR1 03 Dec 23:42:27 23:46:31 44° 99° (E) 23:50:33 145.865
QB50P2 03 Dec 23:45:46 23:49:58 56° 101° (E) 23:54:07 145.880/145.840
POLYITAN 1 03 Dec 23:46:24 23:50:34 53° 100° (E) 23:54:41 437.675
CUBEBUG 1 03 Dec 23:58:25 00:02:16 30° 264° (W) 00:06:09 437.445
QB50P1 04 Dec 00:00:12 00:04:29 76° 102° (ESE) 00:08:42 145.935-145.965
VELOX 1 04 Dec 00:02:26 00:06:34 39° 262° (W) 00:10:45 145.980
DUCHIFAT 1 04 Dec 00:05:52 00:10:07 75° 102° (ESE) 00:14:18 145.980
UNISAT 6 04 Dec 00:11:13 00:13:08 13° 301° (WNW) 00:15:01 437.425
JAS-2 04 Dec 00:13:30 00:18:40 70° 287° (WNW) 00:23:57 435.910
ISS 04 Dec 00:17:14 00:20:04 26° 222° (SW) 00:22:53 145.825
POPSAT HIP 1 04 Dec 00:21:32 00:25:46 65° 286° (WNW) 00:29:57 437.405
DX 1 04 Dec 00:23:55 00:28:02 41° 261° (W) 00:32:11 434.975-435.025
Cosmos 2499 04 Dec 00:33:10 00:41:18 52° 89° (E) 00:49:47 435.465 / 435.565
UKube-1 04 Dec 00:35:56 00:40:00 40° 261° (W) 00:44:06 .
AUBIESAT-1 04 Dec 00:44:02 00:47:21 23° 59° (ENE) 00:50:49 437.475
TISAT 1 04 Dec 00:48:18 00:52:31 75° 75° (ENE) 00:56:48 437.305
M-CUBED/EXP-1 PRIME 04 Dec 00:53:40 00:57:22 34° 62° (ENE) 01:01:20 437.505
SPROUT 04 Dec 00:55:14 00:58:08 18° 268° (W) 01:01:04 437.525
SWISSCUBE 04 Dec 01:08:55 01:13:04 31° 67° (ENE) 01:17:15 437.505
BUGSAT 1 04 Dec 01:12:55 01:17:02 52° 288° (WNW) 01:21:05 437.445
BEESAT 04 Dec 01:13:14 01:17:23 30° 66° (ENE) 01:21:33 436.000
GONETS M04 04 Dec 01:13:22 01:22:04 79° 95° (E) 01:30:47
NANOSAT C BR1 04 Dec 01:18:58 01:21:55 19° 296° (WNW) 01:24:51 145.865
QB50P2 04 Dec 01:22:48 01:25:19 15° 298° (WNW) 01:27:48 145.880/145.840
POLYITAN 1 04 Dec 01:23:20 01:25:56 16° 298° (WNW) 01:28:32 437.675
Gurwin Techsat 1B 04 Dec 01:25:36 01:29:55 25° 93° (E) 01:34:12 435.225
O/OREOS (USA 219) 04 Dec 01:33:43 01:37:44 31° 57° (ENE) 01:41:43 437.305
QB50P1 04 Dec 01:38:01 01:39:39 12° 300° (WNW) 01:41:16 145.935-145.965
ITUPSAT 1 04 Dec 01:38:41 01:43:20 51° 71° (ENE) 01:47:58 437.325
DUCHIFAT 1 04 Dec 01:43:34 01:45:12 12° 300° (WNW) 01:46:49 145.980
Oscar 19 04 Dec 01:48:04 01:53:16 74° 103° (ESE) 01:58:27 437.125/150
PHONESAT 2.4 04 Dec 01:53:45 01:55:37 17° 160° (SSE) 01:57:28 2401.200-2431.200
ITAMSAT 1 04 Dec 02:12:50 02:15:46 15° 90° (E) 02:18:40 435.822/435.867
AO-85 04 Dec 02:16:52 02:21:20 35° 117° (ESE) 02:25:32 145.980
AUBIESAT-1 04 Dec 02:17:42 02:21:30 38° 258° (WSW) 02:25:36 437.475
Cosmos 2499 04 Dec 02:26:45 02:34:39 40° 290° (WNW) 02:42:53 435.465 / 435.565
TISAT 1 04 Dec 02:27:57 02:28:40 10° 272° (W) 02:29:25 437.305
M-CUBED/EXP-1 PRIME 04 Dec 02:28:34 02:31:54 24° 262° (W) 02:35:27 437.505
MOZHAYETS 4 04 Dec 02:39:40 02:44:06 50° 72° (ENE) 02:48:33
SWISSCUBE 04 Dec 02:46:34 02:50:48 32° 264° (W) 02:55:05 437.505
AO-7 04 Dec 02:48:40 02:55:21 26° 93° (E) 03:01:59 29.400- 29.500
BEESAT 04 Dec 02:50:51 02:55:06 32° 264° (W) 02:59:23 436.000
Gurwin Techsat 1B 04 Dec 03:04:59 03:10:04 47° 291° (WNW) 03:15:07 435.225
GONETS M04 04 Dec 03:13:05 03:19:54 25° 297° (WNW) 03:26:45
O/OREOS (USA 219) 04 Dec 03:13:13 03:17:04 28° 256° (WSW) 03:20:52 437.305
ITUPSAT 1 04 Dec 03:18:06 03:21:27 19° 268° (W) 03:24:49 437.325
SO-50 04 Dec 03:24:11 03:26:13 13° 29° (NNE) 03:28:14 436.795
KKS-1 04 Dec 03:26:32 03:30:58 69° 74° (ENE) 03:35:27 437.445
PHONESAT 2.4 04 Dec 03:28:03 03:30:29 33° 177° (S) 03:32:56 2401.200-2431.200
Oscar 19 04 Dec 03:28:46 03:32:00 17° 301° (WNW) 03:35:14 437.125/150
STARS 04 Dec 03:39:07 03:43:20 44° 70° (ENE) 03:47:33 437.465
ITAMSAT 1 04 Dec 03:50:36 03:55:47 72° 287° (WNW) 04:00:55 435.822/435.867
AO-85 04 Dec 03:57:22 04:01:46 34° 313° (NW) 04:05:54 145.980
CUBESAT XI-V 04 Dec 04:13:03 04:17:36 67° 74° (ENE) 04:22:11 437.345
MOZHAYETS 4 04 Dec 04:18:27 04:21:33 18° 269° (W) 04:24:40
HORYU 2 04 Dec 04:32:13 04:34:19 13° 90° (E) 04:36:25 437.375
AO-7 04 Dec 04:40:29 04:48:51 75° 292° (WNW) 04:57:11 29.400- 29.500
BRITE-PL 04 Dec 04:42:09 04:46:46 28° 94° (E) 04:51:33 437.365/2234.400
BEESAT 3 04 Dec 04:48:27 04:50:41 15° 110° (ESE) 04:52:56 437.485
YUBILEINY 04 Dec 04:49:02 04:55:27 22° 60° (ENE) 05:01:49 435.215
PHONESAT 2.4 04 Dec 05:03:10 05:05:26 25° 193° (SSW) 05:07:42 2401.200-2431.200
SO-50 04 Dec 05:03:12 05:07:42 56° 51° (NE) 05:12:06 436.795
KKS-1 04 Dec 05:06:06 05:08:00 12° 271° (W) 05:09:55 437.445
CUTE-I 04 Dec 05:11:11 05:12:39 11° 87° (E) 05:14:06 437.470
BEESAT 2 04 Dec 05:13:22 05:15:06 13° 109° (ESE) 05:16:49 435.950
STARS 04 Dec 05:16:44 05:19:53 19° 267° (W) 05:23:04 437.465
STRAND 1 04 Dec 05:21:00 05:24:18 18° 60° (ENE) 05:27:36 437.568
Cosmos 2491 04 Dec 05:23:03 05:26:41 13° 72° (ENE) 05:30:18 435.465 / 435.565
Cosmos 2504 04 Dec 05:25:07 05:30:46 18° 56° (ENE) 05:36:15 435.465 / 435.565
ITAMSAT 1 04 Dec 05:32:51 05:34:19 11° 306° (NW) 05:35:47 435.822/435.867
Cubesat XI-IV 04 Dec 05:34:31 05:38:15 19° 91° (E) 05:41:58 437.490
NOAA 15 04 Dec 05:39:02 05:43:12 23° 93° (E) 05:47:20 137.62
CUBESAT XI-V 04 Dec 05:53:16 05:55:28 13° 271° (W) 05:57:39 437.345
HORYU 2 04 Dec 06:06:54 06:11:19 64° 287° (WNW) 06:15:40 437.375
GOMX 1 04 Dec 06:07:02 06:12:29 73° 101° (E) 06:17:59 467.674
RS-15 04 Dec 06:11:12 06:19:16 22° 98° (E) 06:27:32 29.354- 29.394
BRITE-PL 04 Dec 06:20:18 06:25:19 43° 290° (WNW) 06:30:34 437.365/2234.400
BEESAT 3 04 Dec 06:24:02 06:27:52 55° 308° (NW) 06:31:46 437.485
CINEMA 3 04 Dec 06:27:47 06:30:00 13° 87° (E) 06:32:09 145.822/145.860
DOVE 4 04 Dec 06:28:43 06:33:56 52° 99° (E) 06:39:00 437.250
LilacSat-2 04 Dec 06:30:02 06:33:50 73° 102° (ESE) 06:37:35 437.200
AO-7 04 Dec 06:34:43 06:40:18 20° 313° (NW) 06:45:54 29.400- 29.500
AIST 1 04 Dec 06:36:24 06:40:21 31° 74° (ENE) 06:44:17
NOAA 18 04 Dec 06:39:10 06:44:29 45° 99° (E) 06:49:45 137.9125
SO-50 04 Dec 06:44:39 06:47:44 18° 249° (WSW) 06:50:46 436.795
YUBILEINY 04 Dec 06:44:41 06:53:34 90° 83° (E) 07:02:25 435.215
CUTE-I 04 Dec 06:48:06 06:53:29 85° 104° (ESE) 06:58:48 437.470
BEESAT 2 04 Dec 06:48:25 06:52:21 66° 307° (NW) 06:56:20 435.950
STRAND 1 04 Dec 06:57:48 07:02:55 70° 257° (WSW) 07:08:04 437.568
CUTE 1.7 + AOD 2 04 Dec 07:10:58 07:14:00 19° 92° (E) 07:17:02 437.475
Cosmos 2491 04 Dec 07:13:04 07:21:45 69° 93° (E) 07:30:26 435.465 / 435.565
Cubesat XI-IV 04 Dec 07:13:28 07:18:44 60° 289° (WNW) 07:23:59 437.490
Cosmos 2504 04 Dec 07:16:58 07:25:54 75° 80° (E) 07:34:19 435.465 / 435.565
NOAA 15 04 Dec 07:18:08 07:23:13 49° 291° (WNW) 07:28:17 137.62
HO-68 04 Dec 07:20:11 07:26:36 33° 96° (E) 07:32:57 435.675
CANX-2 04 Dec 07:27:56 07:31:46 33° 96° (E) 07:35:35 2200.000
AAUSAT CUBESAT 2 04 Dec 07:45:05 07:47:39 16° 91° (E) 07:50:13 437.432
GOMX 1 04 Dec 07:46:20 07:49:58 19° 299° (WNW) 07:53:40 467.674
UWE-3 04 Dec 07:47:16 07:49:06 12° 88° (E) 07:50:55 435.000/436.395/437.385
SEEDS 04 Dec 07:57:40 08:01:39 41° 98° (E) 08:05:36 437.485
UNISAT 6 04 Dec 08:00:03 08:01:02 11° 58° (ENE) 08:02:00 437.425
PRISM 04 Dec 08:02:02 08:05:48 38° 70° (ENE) 08:09:37 437.425
CINEMA 3 04 Dec 08:02:50 08:07:43 74° 286° (WNW) 08:12:23 145.822/145.860
BEESAT 3 04 Dec 08:05:52 08:06:23 10° 329° (NNW) 08:06:55 437.485
DOVE 4 04 Dec 08:07:05 08:11:13 24° 296° (WNW) 08:15:19 437.250
COMPASS 1 04 Dec 08:12:08 08:16:04 40° 98° (E) 08:19:59 437.405
AIST 1 04 Dec 08:14:15 08:17:48 24° 272° (W) 08:21:21
RS-15 04 Dec 08:17:56 08:29:42 81° 121° (ESE) 08:42:03 29.354- 29.394
NOAA 18 04 Dec 08:20:15 08:24:55 28° 297° (WNW) 08:29:33 137.9125
TIGRISAT 04 Dec 08:28:09 08:31:22 19° 63° (ENE) 08:34:35 435.000
ANTELSAT 04 Dec 08:28:53 08:32:16 20° 64° (ENE) 08:35:37 437.575/2403.000
BEESAT 2 04 Dec 08:29:29 08:30:56 12° 327° (NNW) 08:32:23 435.950
CUTE-I 04 Dec 08:29:48 08:32:49 15° 303° (WNW) 08:35:48 437.470
ZACube-1 04 Dec 08:31:50 08:35:13 23° 93° (E) 08:38:33 437.345
CUBEBUG 2 04 Dec 08:34:49 08:39:15 63° 101° (E) 08:43:31 437.445
FUNcube-1 04 Dec 08:40:37 08:44:11 26° 94° (E) 08:47:41 145.935
YUBILEINY 04 Dec 08:43:18 08:49:06 20° 283° (WNW) 08:54:56 435.215
CUTE 1.7 + AOD 2 04 Dec 08:46:04 08:50:00 39° 289° (WNW) 08:53:55 437.475
JAS-2 04 Dec 08:47:42 08:48:43 10° 54° (NE) 08:49:43 435.910
AIST 2 04 Dec 08:57:20 09:01:25 76° 124° (ESE) 09:05:36 435.215
DELFI C3 04 Dec 09:01:48 09:04:08 15° 91° (E) 09:06:27 145.870
CANX-2 04 Dec 09:04:06 09:07:27 23° 293° (WNW) 09:10:47 2200.000
HO-68 04 Dec 09:07:37 09:14:32 52° 294° (WNW) 09:21:27 435.675
CUSAT 1 04 Dec 09:11:34 09:13:56 19° 96° (E) 09:16:03 437.405
Cosmos 2504 04 Dec 09:11:35 09:18:20 25° 281° (W) 09:24:50 435.465 / 435.565
Cosmos 2491 04 Dec 09:11:58 09:19:20 29° 295° (WNW) 09:26:43 435.465 / 435.565
Oscar 11 04 Dec 09:13:26 09:17:42 57° 100° (E) 09:21:55 145.826/435.025
AAUSAT CUBESAT 2 04 Dec 09:19:24 09:23:22 46° 288° (WNW) 09:27:20 437.432
UWE-3 04 Dec 09:21:43 09:26:03 63° 286° (WNW) 09:30:14 435.000/436.395/437.385
UNISAT 6 04 Dec 09:32:15 09:36:57 80° 74° (ENE) 09:41:38 437.425
SEEDS 04 Dec 09:34:05 09:37:03 19° 295° (WNW) 09:40:01 437.485
DANDE 04 Dec 09:37:21 09:39:58 15° 94° (E) 09:42:14 436.750
PRISM 04 Dec 09:38:22 09:41:15 19° 267° (W) 09:44:09 437.425
POPSAT HIP 1 04 Dec 09:42:15 09:44:07 13° 61° (ENE) 09:46:00 437.405
CINEMA 3 04 Dec 09:43:12 09:43:54 10° 304° (NW) 09:44:35 145.822/145.860
COMPASS 1 04 Dec 09:48:21 09:51:21 19° 295° (WNW) 09:54:19 437.405
TIGRISAT 04 Dec 10:03:03 10:07:39 54° 260° (W) 10:12:15 435.000
ANTELSAT 04 Dec 10:04:03 10:08:36 50° 261° (W) 10:13:10 437.575/2403.000
ZACube-1 04 Dec 10:07:44 10:11:35 33° 291° (WNW) 10:15:20 437.345
CUBEBUG 2 04 Dec 10:12:52 10:15:19 15° 299° (WNW) 10:17:43 437.445
FUNcube-1 04 Dec 10:16:44 10:20:25 29° 292° (WNW) 10:24:02 145.935
HUMSAT D 04 Dec 10:16:55 10:20:56 54° 100° (E) 10:24:55 437.325/437.525
Cosmos 2499 04 Dec 10:23:23 10:29:45 22° 60° (ENE) 10:35:48 435.465 / 435.565
JAS-2 04 Dec 10:26:26 10:32:51 61° 72° (ENE) 10:38:33 435.910
BUGSAT 1 04 Dec 10:30:36 10:32:53 14° 61° (ENE) 10:35:09 437.445
RS-15 04 Dec 10:32:23 10:43:35 42° 328° (NNW) 10:55:08 29.354- 29.394
DELFI C3 04 Dec 10:35:23 10:39:11 45° 287° (WNW) 10:42:59 145.870
NANOSAT C BR1 04 Dec 10:35:48 10:39:48 40° 71° (ENE) 10:43:49 145.865
AIST 2 04 Dec 10:37:40 10:40:24 17° 322° (NW) 10:43:11 435.215
QB50P2 04 Dec 10:39:33 10:43:42 51° 72° (ENE) 10:47:52 145.880/145.840
POLYITAN 1 04 Dec 10:40:09 10:44:18 49° 72° (ENE) 10:48:27 437.675
AO-85 04 Dec 10:46:48 10:50:39 42° 49° (NE) 10:54:21 145.980
Oscar 11 04 Dec 10:50:52 10:53:23 15° 298° (WNW) 10:55:53 145.826/435.025
QB50P1 04 Dec 10:53:43 10:57:58 68° 75° (ENE) 11:02:15 145.935-145.965
CUSAT 1 04 Dec 10:53:55 10:55:44 14° 286° (WNW) 10:57:26 437.405
HO-68 04 Dec 10:58:18 11:00:39 12° 315° (NW) 11:03:01 435.675
DUCHIFAT 1 04 Dec 10:58:47 11:02:59 66° 75° (ENE) 11:07:15 145.980
ESTCUBE 1 04 Dec 10:59:04 11:02:43 23° 94° (E) 11:06:20 437.505/2401.250
UNISAT 6 04 Dec 11:12:35 11:14:12 12° 272° (W) 11:15:49 437.425
AISAT 04 Dec 11:14:39 11:17:15 15° 91° (E) 11:19:50 437.250
POPSAT HIP 1 04 Dec 11:15:02 11:19:19 73° 259° (WSW) 11:23:37 437.405
DANDE 04 Dec 11:18:01 11:22:34 42° 282° (WNW) 11:26:03 436.750
GONETS M04 04 Dec 11:21:42 11:29:54 43° 71° (ENE) 11:38:04
PCSat 04 Dec 11:24:21 11:29:02 31° 110° (ESE) 11:33:45 145.827
Oscar 19 04 Dec 11:29:31 11:32:56 18° 60° (ENE) 11:36:20 437.125/150
CUBEBUG 1 04 Dec 11:44:36 11:48:51 42° 99° (E) 11:53:03 437.445
VELOX 1 04 Dec 11:50:34 11:54:38 33° 97° (E) 11:58:39 145.980
HUMSAT D 04 Dec 11:53:52 11:56:06 15° 297° (WNW) 11:58:20 437.325/437.525
BUGSAT 1 04 Dec 12:03:33 12:07:44 62° 259° (WSW) 12:11:59 437.445
AO-7 04 Dec 12:04:00 12:06:18 11° 36° (NE) 12:08:37 29.400- 29.500
DX 1 04 Dec 12:10:22 12:14:11 28° 96° (E) 12:17:59 434.975-435.025
NANOSAT C BR1 04 Dec 12:12:36 12:15:41 19° 267° (W) 12:18:48 145.865
JAS-2 04 Dec 12:13:15 12:18:13 23° 266° (W) 12:22:48 435.910
Cosmos 2499 04 Dec 12:15:26 12:24:13 90° 263° (W) 12:32:21 435.465 / 435.565
QB50P2 04 Dec 12:17:12 12:19:47 16° 269° (W) 12:22:24 145.880/145.840
POLYITAN 1 04 Dec 12:17:38 12:20:21 16° 269° (W) 12:23:06 437.675
UKube-1 04 Dec 12:21:17 12:25:01 28° 96° (E) 12:28:44 .
AO-85 04 Dec 12:27:56 12:30:43 19° 248° (WSW) 12:33:27 145.980
50 SAT 04 Dec 12:30:54 12:34:28 83° 103° (ESE) 12:38:02 437.505
QB50P1 04 Dec 12:32:39 12:34:11 12° 271° (W) 12:35:45 145.935-145.965
TISAT 1 04 Dec 12:33:50 12:34:01 10° 88° (E) 12:34:12 437.305
ESTCUBE 1 04 Dec 12:35:28 12:39:37 37° 291° (WNW) 12:43:45 437.505/2401.250
DUCHIFAT 1 04 Dec 12:37:29 12:39:07 12° 271° (W) 12:40:46 145.980
SPROUT 04 Dec 12:37:32 12:41:51 71° 101° (ESE) 12:46:07 437.525
Gurwin Techsat 1B 04 Dec 12:48:02 12:53:05 46° 69° (ENE) 12:58:09 435.225
AISAT 04 Dec 12:49:40 12:54:04 57° 288° (WNW) 12:58:27 437.250
RS-15 04 Dec 12:50:22 13:00:34 29° 2° (N) 13:10:49 29.354- 29.394
BEESAT 3 04 Dec 13:02:28 13:05:25 19° 41° (NE) 13:08:21 437.485
Oscar 19 04 Dec 13:06:38 13:11:43 66° 258° (WSW) 13:16:51 437.125/150
PCSat 04 Dec 13:07:07 13:12:16 43° 309° (NW) 13:17:27 145.827
GONETS M04 04 Dec 13:18:38 13:26:45 46° 272° (W) 13:34:53
CUBEBUG 1 04 Dec 13:21:31 13:24:51 21° 296° (WNW) 13:28:09 437.445
VELOX 1 04 Dec 13:27:14 13:30:58 26° 294° (WNW) 13:34:41 145.980
BEESAT 2 04 Dec 13:27:43 13:30:31 18° 39° (NE) 13:33:19 435.950
ITAMSAT 1 04 Dec 13:31:46 13:36:12 29° 64° (ENE) 13:40:38 435.822/435.867
ITUPSAT 1 04 Dec 13:39:54 13:41:18 11° 88° (E) 13:42:40 437.325
DX 1 04 Dec 13:46:31 13:50:19 29° 293° (WNW) 13:54:07 434.975-435.025
AO-7 04 Dec 13:49:14 13:56:52 43° 59° (ENE) 14:04:33 29.400- 29.500
AUBIESAT-1 04 Dec 13:55:41 13:58:02 14° 94° (E) 14:00:20 437.475
UKube-1 04 Dec 13:57:14 14:01:01 29° 293° (WNW) 14:04:46 .
M-CUBED/EXP-1 PRIME 04 Dec 14:05:23 14:09:00 22° 97° (E) 14:12:31 437.505
TISAT 1 04 Dec 14:05:56 14:10:11 77° 285° (WNW) 14:14:23 437.305
Cosmos 2499 04 Dec 14:10:24 14:16:00 20° 284° (WNW) 14:21:23 435.465 / 435.565
SPROUT 04 Dec 14:15:14 14:17:12 13° 299° (WNW) 14:19:09 437.525
Gurwin Techsat 1B 04 Dec 14:28:53 14:33:13 25° 266° (W) 14:37:35 435.225
BEESAT 3 04 Dec 14:39:26 14:43:21 55° 239° (WSW) 14:47:14 437.485
SWISSCUBE 04 Dec 14:44:16 14:48:57 56° 101° (E) 14:53:37 437.505
BEESAT 04 Dec 14:48:30 14:53:12 56° 101° (E) 14:57:50 436.000
PCSat 04 Dec 14:55:24 14:57:09 11° 332° (NNW) 14:58:55 145.827
BEESAT 2 04 Dec 15:04:42 15:08:42 65° 239° (WSW) 15:12:42 435.950
RS-15 04 Dec 15:05:35 15:17:21 45° 35° (NE) 15:28:51 29.354- 29.394
ITAMSAT 1 04 Dec 15:10:37 15:15:30 40° 262° (W) 15:20:25 435.822/435.867
ITUPSAT 1 04 Dec 15:14:57 15:19:44 84° 286° (WNW) 15:24:30 437.325
KKS-1 04 Dec 15:17:59 15:19:33 12° 89° (E) 15:21:08 437.445
AUBIESAT-1 04 Dec 15:28:16 15:32:54 70° 291° (WNW) 15:37:21 437.475
HORYU 2 04 Dec 15:31:35 15:34:27 17° 62° (ENE) 15:37:18 437.375
M-CUBED/EXP-1 PRIME 04 Dec 15:39:08 15:43:38 46° 295° (WNW) 15:48:01 437.505
AIST 2 04 Dec 15:39:47 15:42:09 14° 35° (NE) 15:44:30 435.215
AO-7 04 Dec 15:41:35 15:49:31 49° 259° (W) 15:57:34 29.400- 29.500
GOMX 1 04 Dec 15:42:37 15:44:10 12° 56° (ENE) 15:45:45 467.674
O/OREOS (USA 219) 04 Dec 15:48:00 15:51:46 26° 103° (ESE) 15:55:31 437.305
BRITE-PL 04 Dec 15:55:22 15:59:08 30° 67° (ENE) 16:03:08 437.365/2234.400
CUBESAT XI-V 04 Dec 16:09:07 16:11:49 15° 90° (E) 16:14:30 437.345
MOZHAYETS 4 04 Dec 16:09:45 16:14:20 86° 282° (WNW) 16:18:53
SWISSCUBE 04 Dec 16:23:04 16:26:19 19° 298° (WNW) 16:29:33 437.505
BEESAT 04 Dec 16:27:17 16:30:33 19° 298° (WNW) 16:33:50 436.000
NOAA 18 04 Dec 16:29:19 16:32:41 17° 57° (ENE) 16:36:03 137.9125
CUTE-I 04 Dec 16:33:08 16:37:20 24° 62° (ENE) 16:41:34 437.470
KKS-1 04 Dec 16:52:08 16:56:38 74° 286° (WNW) 17:01:05 437.445
ITUPSAT 1 04 Dec 16:55:18 16:56:47 11° 303° (WNW) 16:58:16 437.325
Cubesat XI-IV 04 Dec 16:57:40 17:02:34 37° 67° (ENE) 17:07:29 437.490
ISS 04 Dec 16:57:51 17:00:55 37° 141° (SE) 17:04:00 145.825
NOAA 15 04 Dec 17:00:28 17:05:24 43° 68° (ENE) 17:10:21 137.62
STARS 04 Dec 17:02:43 17:07:09 69° 103° (ESE) 17:11:32 437.465
AUBIESAT-1 04 Dec 17:05:29 17:06:25 11° 309° (NW) 17:07:20 437.475
HORYU 2 04 Dec 17:06:08 17:10:33 57° 259° (W) 17:14:59 437.375
LilacSat-2 04 Dec 17:13:14 17:16:54 43° 72° (ENE) 17:20:34 437.200
GOMX 1 04 Dec 17:16:48 17:21:20 86° 79° (E) 17:26:15 467.674
AIST 2 04 Dec 17:17:03 17:21:18 82° 54° (NE) 17:25:32 435.215
RS-15 04 Dec 17:18:34 17:30:53 74° 242° (WSW) 17:42:46 29.354- 29.394
Cosmos 2491 04 Dec 17:21:35 17:29:32 37° 69° (ENE) 17:37:24 435.465 / 435.565
O/OREOS (USA 219) 04 Dec 17:26:48 17:31:00 35° 301° (WNW) 17:35:13 437.305
CINEMA 3 04 Dec 17:30:24 17:33:28 17° 61° (ENE) 17:36:34 145.822/145.860
BRITE-PL 04 Dec 17:34:02 17:37:39 26° 267° (W) 17:41:28 437.365/2234.400
DOVE 4 04 Dec 17:35:19 17:39:59 58° 73° (ENE) 17:44:59 437.250
CUBESAT XI-V 04 Dec 17:44:59 17:49:35 61° 287° (WNW) 17:54:11 437.345
MOZHAYETS 4 04 Dec 17:49:42 17:50:44 11° 302° (WNW) 17:51:46
HO-68 04 Dec 17:50:58 17:57:01 31° 59° (ENE) 18:03:07 435.675
YUBILEINY 04 Dec 17:54:07 18:00:10 21° 77° (ENE) 18:06:13 435.215
CUTE 1.7 + AOD 2 04 Dec 18:05:34 18:08:24 18° 64° (ENE) 18:11:14 437.475
NOAA 18 04 Dec 18:07:04 18:12:37 84° 256° (WSW) 18:18:14 137.9125
Cosmos 2504 04 Dec 18:10:28 18:12:50 11° 70° (ENE) 18:15:14 435.465 / 435.565
CUTE-I 04 Dec 18:11:49 18:17:02 52° 260° (W) 18:22:18 437.470
CANX-2 04 Dec 18:22:15 18:25:55 29° 69° (ENE) 18:29:35 2200.000
PCSat 04 Dec 18:28:56 18:29:54 10° 26° (NNE) 18:30:52 145.827
ISS 04 Dec 18:34:17 18:37:25 39° 339° (NNW) 18:40:34 145.825
AAUSAT CUBESAT 2 04 Dec 18:37:33 18:39:41 14° 62° (ENE) 18:41:51 437.432
Cubesat XI-IV 04 Dec 18:37:54 18:42:40 32° 264° (W) 18:47:27 437.490
STARS 04 Dec 18:40:39 18:42:57 14° 300° (WNW) 18:45:14 437.465
NOAA 15 04 Dec 18:41:00 18:45:20 26° 266° (W) 18:49:41 137.62
UWE-3 04 Dec 18:45:26 18:48:06 15° 62° (ENE) 18:50:46 435.000/436.395/437.385
LilacSat-2 04 Dec 18:49:12 18:51:25 15° 269° (W) 18:53:37 437.200
SEEDS 04 Dec 18:50:49 18:54:36 35° 70° (ENE) 18:58:24 437.485
AIST 2 04 Dec 18:57:55 18:59:08 11° 252° (WSW) 19:00:22 435.215
GOMX 1 04 Dec 18:59:31 19:00:14 10° 275° (W) 19:00:58 467.674
COMPASS 1 04 Dec 19:04:20 19:08:02 33° 70° (ENE) 19:11:45 437.405
CINEMA 3 04 Dec 19:05:05 19:09:59 71° 258° (WSW) 19:15:02 145.822/145.860
STRAND 1 04 Dec 19:06:49 19:11:29 35° 97° (E) 19:16:07 437.568
AIST 1 04 Dec 19:08:30 19:11:17 17° 86° (E) 19:14:05
DOVE 4 04 Dec 19:14:58 19:18:08 17° 272° (W) 19:21:26 437.250
Cosmos 2491 04 Dec 19:18:18 19:26:40 53° 270° (W) 19:35:00 435.465 / 435.565
SO-50 04 Dec 19:21:37 19:23:29 12° 108° (ESE) 19:25:20 436.795
ZACube-1 04 Dec 19:28:53 19:32:32 25° 66° (ENE) 19:36:10 437.345
CUBEBUG 2 04 Dec 19:33:34 19:38:16 64° 75° (ENE) 19:42:58 437.445
RS-15 04 Dec 19:33:39 19:41:02 19° 264° (W) 19:48:20 29.354- 29.394
HO-68 04 Dec 19:37:18 19:44:20 59° 258° (WSW) 19:51:27 435.675
FUNcube-1 04 Dec 19:37:18 19:41:07 27° 67° (ENE) 19:44:54 145.935
CUSAT 1 04 Dec 19:39:33 19:41:57 17° 74° (ENE) 19:44:42 437.405
CUTE 1.7 + AOD 2 04 Dec 19:39:52 19:43:55 45° 261° (W) 19:47:58 437.475
YUBILEINY 04 Dec 19:47:06 19:55:49 84° 278° (W) 20:04:38 435.215
DELFI C3 04 Dec 19:50:15 19:51:40 12° 62° (ENE) 19:53:05 145.870
NOAA 18 04 Dec 19:52:12 19:54:05 12° 273° (W) 19:55:59 137.9125
Cosmos 2504 04 Dec 19:56:03 20:04:10 60° 91° (E) 20:12:47 435.465 / 435.565
CANX-2 04 Dec 19:58:13 20:01:45 26° 265° (W) 20:05:18 2200.000
Oscar 11 04 Dec 20:09:27 20:13:39 53° 73° (ENE) 20:17:52 145.826/435.025
PCSat 04 Dec 20:09:50 20:14:55 38° 50° (NE) 20:19:58 145.827
AAUSAT CUBESAT 2 04 Dec 20:10:39 20:14:41 58° 260° (W) 20:18:46 437.432
ISS 04 Dec 20:11:49 20:14:30 22° 359° (N) 20:17:13 145.825
UWE-3 04 Dec 20:19:23 20:24:02 68° 259° (WSW) 20:28:39 435.000/436.395/437.385
SEEDS 04 Dec 20:27:12 20:30:24 21° 267° (W) 20:33:36 437.485
COMPASS 1 04 Dec 20:40:25 20:43:39 22° 267° (W) 20:46:53 437.405
AIST 1 04 Dec 20:44:23 20:48:29 44° 283° (WNW) 20:52:40
STRAND 1 04 Dec 20:46:07 20:50:35 31° 294° (WNW) 20:55:01 437.568
SO-50 04 Dec 20:58:29 21:03:16 88° 303° (WNW) 21:08:01 436.795
ZACube-1 04 Dec 21:04:24 21:08:39 37° 263° (W) 21:12:50 437.345
HUMSAT D 04 Dec 21:09:18 21:13:20 46° 72° (ENE) 21:17:21 437.325/437.525
CUBEBUG 2 04 Dec 21:12:34 21:15:18 15° 271° (W) 21:18:02 437.445
FUNcube-1 04 Dec 21:13:09 21:17:14 32° 264° (W) 21:21:18 145.935
PRISM 04 Dec 21:16:31 21:20:34 50° 100° (E) 21:24:36 437.425
CUSAT 1 04 Dec 21:20:36 21:23:46 31° 263° (W) 21:27:43 437.405
DELFI C3 04 Dec 21:22:04 21:25:57 65° 259° (WSW) 21:29:52 145.870
UNISAT 6 04 Dec 21:23:59 21:26:24 14° 90° (E) 21:28:46 437.425
Oscar 11 04 Dec 21:47:35 21:50:07 15° 270° (W) 21:52:38 145.826/435.025
YUBILEINY 04 Dec 21:48:09 21:54:05 20° 301° (WNW) 22:00:06 435.215
ISS 04 Dec 21:48:33 21:51:39 35° 19° (NNE) 21:54:44 145.825
Cosmos 2504 04 Dec 21:50:40 21:58:05 34° 293° (WNW) 22:05:54 435.465 / 435.565
DANDE 04 Dec 21:52:47 21:55:26 47° 261° (W) 21:58:32 436.750
PCSat 04 Dec 21:53:21 21:58:17 36° 248° (WSW) 22:03:11 145.827
TIGRISAT 04 Dec 21:53:24 21:57:10 27° 95° (E) 22:00:51 435.000
ANTELSAT 04 Dec 21:54:25 21:58:17 29° 95° (E) 22:02:04 437.575/2403.000
ESTCUBE 1 04 Dec 22:00:10 22:03:54 27° 66° (ENE) 22:07:39 437.505/2401.250
AISAT 04 Dec 22:13:36 22:16:31 18° 62° (ENE) 22:19:27 437.250
SO-50 04 Dec 22:41:12 22:44:24 18° 324° (NW) 22:47:35 436.795
CUBEBUG 1 04 Dec 22:41:55 22:46:01 42° 70° (ENE) 22:50:11 437.445
HUMSAT D 04 Dec 22:46:29 22:49:11 16° 268° (W) 22:51:52 437.325/437.525
VELOX 1 04 Dec 22:49:16 22:53:17 36° 69° (ENE) 22:57:20 145.980
PRISM 04 Dec 22:52:51 22:55:28 16° 297° (WNW) 22:58:06 437.425
UNISAT 6 04 Dec 22:59:09 23:03:31 57° 287° (WNW) 23:07:45 437.425
POPSAT HIP 1 04 Dec 22:59:16 23:01:57 16° 91° (E) 23:04:35 437.405
Cosmos 2499 04 Dec 23:04:45 23:09:09 15° 73° (ENE) 23:13:36 435.465 / 435.565
DX 1 04 Dec 23:07:20 23:11:09 31° 68° (ENE) 23:15:00 434.975-435.025
50 SAT 04 Dec 23:07:37 23:10:55 40° 72° (ENE) 23:14:15 437.505
UKube-1 04 Dec 23:17:15 23:20:58 29° 67° (ENE) 23:24:44 .
JAS-2 04 Dec 23:18:35 23:23:28 40° 98° (E) 23:28:29 435.910
ISS 04 Dec 23:25:02 23:28:15 47° 217° (SW) 23:31:26 145.825
TISAT 1 04 Dec 23:26:45 23:27:52 11° 59° (ENE) 23:28:59 437.305
TIGRISAT 04 Dec 23:29:58 23:33:51 30° 293° (WNW) 23:37:38 435.000
ANTELSAT 04 Dec 23:31:09 23:34:56 28° 293° (WNW) 23:38:38 437.575/2403.000
